Weather History for Provincetown, MA

Change the Weather History Date:

Saturday, October 20, 2012

  Actual Average Record
Temperature  
Mean Temperature 62 °F -  
Max Temperature 68 °F 56 °F 71 °F (2011)
Min Temperature 57 °F 45 °F 36 °F (1952)
Degree Days  
Heating Degree Days 2    
Growing Degree Days 12 (Base 50)    
Moisture  
Dew Point 61 °F    
Average Humidity 90    
Maximum Humidity 100    
Minimum Humidity 82    
Precipitation  
Precipitation 0.10 in - - ()
Sea Level Pressure  
Sea Level Pressure 29.71 in    
Wind  
Wind Speed 10 mph (SSW)    
Max Wind Speed 17 mph    
Max Gust Speed 23 mph    
Visibility 8 miles    
Events      
Averages and records for this station are not official NWS values.
T = Trace of Precipitation, MM = Missing Value Source: NWS Daily Summary

Daily Weather History Graph

Daily Weather History Graph

Search for Another Location

Airport:

Trip Planner

Search our weather history database for the weather conditions in past years. The results will help you decide how hot, cold, wet, or windy it might be!

Date:

Astronomy

Oct. 20, 2012 Rise Set
Actual Time 6:59 AM EDT 5:50 PM EDT
Civil Twilight 6:31 AM EDT 6:19 PM EDT
Nautical Twilight 5:58 AM EDT 6:51 PM EDT
Astronomical Twilight 5:26 AM EDT 7:23 PM EDT
Moon 12:36 PM EDT (10/20) 10:30 PM EDT (10/20)
Length of Visible Light 11h 47m
Length of Day
10h 51m
Waxing Crescent, 34% of the Moon is Illuminated
Oct 20
Waxing Crescent
Oct 21
First Quarter
Oct 29
Full
Nov 6
Last Quarter
Nov 13
New

Hourly Weather History & Observations

Time (EDT) Temp. Dew Point Humidity Pressure Visibility Wind Dir Wind Speed Gust Speed Precip Events Conditions
12:15 AM 66.2 °F 64.4 °F 94% 29.80 in 6.0 mi SSW 6.9 mph - N/A   Overcast
12:35 AM 66.2 °F 62.6 °F 88% 29.79 in 5.0 mi SSE 6.9 mph - 0.02 in   Overcast
12:55 AM 66.2 °F 62.6 °F 88% 29.79 in 5.0 mi South 8.1 mph - 0.06 in   Overcast
1:16 AM 66.2 °F 64.4 °F 94% 29.79 in 6.0 mi SSE 11.5 mph 17.3 mph 0.03 in   Overcast
1:35 AM 66.2 °F 64.4 °F 94% 29.78 in 6.0 mi SSE 9.2 mph - 0.03 in   Overcast
1:55 AM 66.2 °F 64.4 °F 94% 29.77 in 3.0 mi South 8.1 mph - 0.03 in   Overcast
2:15 AM 66.2 °F 64.4 °F 94% 29.76 in 1.2 mi South 11.5 mph - 0.01 in   Overcast
2:35 AM 66.2 °F 64.4 °F 94% 29.75 in 2.5 mi SSE 10.4 mph 16.1 mph 0.01 in   Overcast
2:55 AM 66.2 °F 64.4 °F 94% 29.74 in 1.8 mi SSE 11.5 mph 18.4 mph 0.01 in   Overcast
3:15 AM 68.0 °F 64.4 °F 88% 29.73 in 5.0 mi South 13.8 mph 20.7 mph N/A   Overcast
3:35 AM 68.0 °F 64.4 °F 88% 29.74 in 7.0 mi SSE 11.5 mph 18.4 mph N/A   Overcast
3:55 AM 68.0 °F 64.4 °F 88% 29.74 in 7.0 mi South 9.2 mph - N/A   Overcast
4:15 AM 68.0 °F 64.4 °F 88% 29.75 in 8.0 mi South 9.2 mph - N/A   Mostly Cloudy
4:35 AM 68.0 °F 62.6 °F 83% 29.75 in 9.0 mi South 6.9 mph - N/A   Overcast
5:15 AM 66.2 °F 62.6 °F 88% 29.74 in 8.0 mi SSW 4.6 mph - N/A   Overcast
5:35 AM 66.2 °F 62.6 °F 88% 29.74 in 4.0 mi South 5.8 mph - N/A   Overcast
5:55 AM 66.2 °F 62.6 °F 88% 29.71 in 10.0 mi SSE 4.6 mph - N/A   Overcast
6:15 AM 66.2 °F 64.4 °F 94% 29.69 in 6.0 mi SE 4.6 mph - N/A   Overcast
6:35 AM 68.0 °F 64.4 °F 88% 29.70 in 2.5 mi SSE 3.5 mph - N/A   Overcast
7:15 AM 68.0 °F 64.4 °F 88% 29.70 in 3.0 mi South 6.9 mph - N/A   Overcast
7:55 AM 66.2 °F 64.4 °F 94% 29.70 in 3.0 mi South 4.6 mph - N/A   Overcast
8:15 AM 68.0 °F 64.4 °F 88% 29.71 in 5.0 mi SSW 8.1 mph - N/A   Mostly Cloudy
8:35 AM 68.0 °F 64.4 °F 88% 29.71 in 8.0 mi South 10.4 mph - N/A   Scattered Clouds
8:55 AM 68.0 °F 64.4 °F 88% 29.71 in 9.0 mi South 9.2 mph - N/A   Mostly Cloudy
9:15 AM 68.0 °F 64.4 °F 88% 29.71 in 8.0 mi South 10.4 mph 16.1 mph N/A   Overcast
9:35 AM 66.2 °F 64.4 °F 94% 29.70 in 3.0 mi South 13.8 mph - N/A   Overcast
9:55 AM 68.0 °F 64.4 °F 88% 29.70 in 1.5 mi South 13.8 mph 20.7 mph N/A   Overcast
10:15 AM 66.2 °F 62.6 °F 88% 29.70 in 10.0 mi South 12.7 mph 18.4 mph N/A   Overcast
10:35 AM 66.2 °F 62.6 °F 88% 29.70 in 7.0 mi South 10.4 mph 16.1 mph N/A   Overcast
10:55 AM 66.2 °F 62.6 °F 88% 29.70 in 3.0 mi South 12.7 mph 18.4 mph N/A   Overcast
11:15 AM 64.4 °F 62.6 °F 94% 29.69 in 0.8 mi South 12.7 mph - N/A   Overcast
11:35 AM 64.4 °F 64.4 °F 100% 29.68 in 5.0 mi SSW 10.4 mph 18.4 mph N/A   Overcast
11:55 AM 66.2 °F 64.4 °F 94% 29.67 in 9.0 mi SSW 12.7 mph 19.6 mph N/A   Overcast
12:15 PM 66.2 °F 64.4 °F 94% 29.67 in 9.0 mi SSW 16.1 mph 23.0 mph N/A   Overcast
12:35 PM 64.4 °F 62.6 °F 94% 29.67 in 10.0 mi SW 12.7 mph 20.7 mph N/A   Overcast
12:55 PM 66.2 °F 62.6 °F 88% 29.66 in 10.0 mi SSW 11.5 mph 17.3 mph N/A   Overcast
1:15 PM 66.2 °F 62.6 °F 88% 29.65 in 10.0 mi SW 11.5 mph - N/A   Overcast
1:35 PM 64.4 °F 62.6 °F 94% 29.65 in 10.0 mi SW 11.5 mph - N/A   Overcast
1:55 PM 64.4 °F 62.6 °F 94% 29.65 in 10.0 mi SW 12.7 mph - N/A   Overcast
2:15 PM 64.4 °F 60.8 °F 88% 29.66 in 10.0 mi SW 17.3 mph 21.9 mph N/A   Mostly Cloudy
2:35 PM 64.4 °F 62.6 °F 94% 29.66 in 10.0 mi SW 15.0 mph - N/A   Scattered Clouds
2:55 PM 64.4 °F 60.8 °F 88% 29.65 in 10.0 mi SSW 12.7 mph - N/A   Partly Cloudy
3:16 PM 64.4 °F 60.8 °F 88% 29.65 in 10.0 mi SSW 12.7 mph - N/A   Clear
3:35 PM 66.2 °F 60.8 °F 83% 29.65 in 10.0 mi SSW 12.7 mph - N/A   Clear
3:55 PM 64.4 °F 60.8 °F 88% 29.65 in 10.0 mi SSW 12.7 mph 17.3 mph N/A   Clear
4:35 PM 64.4 °F 59.0 °F 83% 29.66 in 10.0 mi SSW 9.2 mph - N/A   Clear
4:55 PM 62.6 °F 57.2 °F 82% 29.67 in 10.0 mi SSW 12.7 mph 18.4 mph N/A   Clear
5:15 PM 60.8 °F 57.2 °F 88% 29.67 in 10.0 mi SSW 9.2 mph - N/A   Clear
5:35 PM 60.8 °F 57.2 °F 88% 29.67 in 9.0 mi SSW 9.2 mph - N/A   Clear
5:55 PM 60.8 °F 57.2 °F 88% 29.67 in 8.0 mi SSW 10.4 mph - N/A   Clear
6:15 PM 59.0 °F 57.2 °F 94% 29.67 in 10.0 mi SSW 10.4 mph - N/A   Clear
6:35 PM 59.0 °F 55.4 °F 88% 29.68 in 10.0 mi SSW 9.2 mph - N/A   Clear
6:55 PM 59.0 °F 55.4 °F 88% 29.69 in 10.0 mi South 11.5 mph 16.1 mph N/A   Clear
7:15 PM 59.0 °F 55.4 °F 88% 29.69 in 10.0 mi SSW 12.7 mph - N/A   Clear
7:35 PM 59.0 °F 55.4 °F 88% 29.69 in 10.0 mi SSW 13.8 mph 17.3 mph N/A   Clear
7:55 PM 59.0 °F 55.4 °F 88% 29.70 in 10.0 mi SSW 12.7 mph 19.6 mph N/A   Clear
8:15 PM 59.0 °F 57.2 °F 94% 29.70 in 10.0 mi SSW 12.7 mph - N/A   Clear
8:35 PM 59.0 °F 57.2 °F 94% 29.70 in 10.0 mi SSW 11.5 mph - N/A   Clear
8:55 PM 59.0 °F 57.2 °F 94% 29.71 in 9.0 mi SSW 12.7 mph - N/A   Clear
9:15 PM 59.0 °F 57.2 °F 94% 29.71 in 9.0 mi SW 12.7 mph - N/A   Clear
9:35 PM 59.0 °F 57.2 °F 94% 29.71 in 10.0 mi SW 16.1 mph - N/A   Clear
9:55 PM 59.0 °F 57.2 °F 94% 29.72 in 10.0 mi SW 16.1 mph - N/A   Clear
10:15 PM 59.0 °F 55.4 °F 88% 29.72 in 10.0 mi SW 13.8 mph 19.6 mph N/A   Clear
10:35 PM 59.0 °F 57.2 °F 94% 29.72 in 10.0 mi SW 15.0 mph - N/A   Clear
10:55 PM 57.2 °F 55.4 °F 94% 29.72 in 10.0 mi SW 13.8 mph - N/A   Clear
11:15 PM 57.2 °F 55.4 °F 94% 29.73 in 10.0 mi SW 13.8 mph - N/A   Clear
11:35 PM 57.2 °F 55.4 °F 94% 29.74 in 10.0 mi WSW 12.7 mph - N/A   Clear
11:55 PM 57.2 °F 53.6 °F 88% 29.74 in 10.0 mi WSW 10.4 mph - N/A   Clear